Year,Month,Day,Hour,Minute,Value (Times are PST for temperature in C)
2012,05,14,00,00,10.50
2012,05,14,00,01,10.50
2012,05,14,00,02,10.40
2012,05,14,00,03,10.40
2012,05,14,00,04,10.40
2012,05,14,00,05,10.40
2012,05,14,00,06,10.40
2012,05,14,00,07,10.40
2012,05,14,00,08,10.40
2012,05,14,00,09,10.40
2012,05,14,00,10,10.40
2012,05,14,00,11,10.40
2012,05,14,00,12,10.40
2012,05,14,00,13,10.40
2012,05,14,00,14,10.40
2012,05,14,00,15,10.30
2012,05,14,00,16,10.30
2012,05,14,00,17,10.30
2012,05,14,00,18,10.30
2012,05,14,00,19,10.20
2012,05,14,00,20,10.20
2012,05,14,00,21,10.20
2012,05,14,00,22,10.20
2012,05,14,00,23,10.20
2012,05,14,00,24,10.20
2012,05,14,00,25,10.20
2012,05,14,00,26,10.30
2012,05,14,00,27,10.30
2012,05,14,00,28,10.30
2012,05,14,00,29,10.20
2012,05,14,00,30,10.20
2012,05,14,00,31,10.20
2012,05,14,00,32,10.10
2012,05,14,00,33,10.10
2012,05,14,00,34,10.10
2012,05,14,00,35,10.20
2012,05,14,00,36,10.20
2012,05,14,00,37,10.20
2012,05,14,00,38,10.20
2012,05,14,00,39,10.20
2012,05,14,00,40,10.20
2012,05,14,00,41,10.20
2012,05,14,00,42,10.10
2012,05,14,00,43,10.10
2012,05,14,00,44,10.10
2012,05,14,00,45,10.10
2012,05,14,00,46,10.00
2012,05,14,00,47,10.00
2012,05,14,00,48,10.00
2012,05,14,00,49,10.00
2012,05,14,00,50,10.00
2012,05,14,00,51,10.10
2012,05,14,00,52,10.10
2012,05,14,00,53,10.20
2012,05,14,00,54,10.20
2012,05,14,00,55,10.20
2012,05,14,00,56,10.30
2012,05,14,00,57,10.30
2012,05,14,00,58,10.30
2012,05,14,00,59,10.30
2012,05,14,01,00,10.30
2012,05,14,01,01,10.20
2012,05,14,01,02,10.20
2012,05,14,01,03,10.20
2012,05,14,01,04,10.20
2012,05,14,01,05,10.20
2012,05,14,01,06,10.20
2012,05,14,01,07,10.20
2012,05,14,01,08,10.20
2012,05,14,01,09,10.20
2012,05,14,01,10,10.20
2012,05,14,01,11,10.20
2012,05,14,01,12,10.20
2012,05,14,01,13,10.20
2012,05,14,01,14,10.10
2012,05,14,01,15,10.10
2012,05,14,01,16,10.10
2012,05,14,01,17,10.10
2012,05,14,01,18,10.10
2012,05,14,01,19,10.10
2012,05,14,01,20,10.10
2012,05,14,01,21,10.10
2012,05,14,01,22,10.10
2012,05,14,01,23,10.10
2012,05,14,01,24,10.10
2012,05,14,01,25,10.10
2012,05,14,01,26,10.10
2012,05,14,01,27,10.10
2012,05,14,01,28,10.10
2012,05,14,01,29,10.00
2012,05,14,01,30,10.00
2012,05,14,01,31,9.90
2012,05,14,01,32,9.90
2012,05,14,01,33,9.80
2012,05,14,01,34,9.80
2012,05,14,01,35,9.80
2012,05,14,01,36,9.70
2012,05,14,01,37,9.70
2012,05,14,01,38,9.70
2012,05,14,01,39,9.70
2012,05,14,01,40,9.60
2012,05,14,01,41,9.60
2012,05,14,01,42,9.60
2012,05,14,01,43,9.60
2012,05,14,01,44,9.60
2012,05,14,01,45,9.60
2012,05,14,01,46,9.50
2012,05,14,01,47,9.50
2012,05,14,01,48,9.50
2012,05,14,01,49,9.50
2012,05,14,01,50,9.50
2012,05,14,01,51,9.50
2012,05,14,01,52,9.50
2012,05,14,01,53,9.50
2012,05,14,01,54,9.40
2012,05,14,01,55,9.40
2012,05,14,01,56,9.40
2012,05,14,01,57,9.40
2012,05,14,01,58,9.40
2012,05,14,01,59,9.40
2012,05,14,02,00,9.40
2012,05,14,02,01,9.40
2012,05,14,02,02,9.40
2012,05,14,02,03,9.30
2012,05,14,02,04,9.30
2012,05,14,02,05,9.30
2012,05,14,02,06,9.20
2012,05,14,02,07,9.20
2012,05,14,02,08,9.20
2012,05,14,02,09,9.20
2012,05,14,02,10,9.20
2012,05,14,02,11,9.20
2012,05,14,02,12,9.20
2012,05,14,02,13,9.20
2012,05,14,02,14,9.20
2012,05,14,02,15,9.20
2012,05,14,02,16,9.20
2012,05,14,02,17,9.20
2012,05,14,02,18,9.20
2012,05,14,02,19,9.30
2012,05,14,02,20,9.30
2012,05,14,02,21,9.40
2012,05,14,02,22,9.40
2012,05,14,02,23,9.40
2012,05,14,02,24,9.40
2012,05,14,02,25,9.40
2012,05,14,02,26,9.40
2012,05,14,02,27,9.40
2012,05,14,02,28,9.40
2012,05,14,02,29,9.30
2012,05,14,02,30,9.30
2012,05,14,02,31,9.30
2012,05,14,02,32,9.30
2012,05,14,02,33,9.30
2012,05,14,02,34,9.30
2012,05,14,02,35,9.30
2012,05,14,02,36,9.30
2012,05,14,02,37,9.30
2012,05,14,02,38,9.30
2012,05,14,02,39,9.40
2012,05,14,02,40,9.40
2012,05,14,02,41,9.40
2012,05,14,02,42,9.40
2012,05,14,02,43,9.40
2012,05,14,02,44,9.40
2012,05,14,02,45,9.30
2012,05,14,02,46,9.40
2012,05,14,02,47,9.40
2012,05,14,02,48,9.40
2012,05,14,02,49,9.30
2012,05,14,02,50,9.30
2012,05,14,02,51,9.30
2012,05,14,02,52,9.30
2012,05,14,02,53,9.30
2012,05,14,02,54,9.30
2012,05,14,02,55,9.20
2012,05,14,02,56,9.20
2012,05,14,02,57,9.20
2012,05,14,02,58,9.20
2012,05,14,02,59,9.20
2012,05,14,03,00,9.20
2012,05,14,03,01,9.10
2012,05,14,03,02,9.10
2012,05,14,03,03,9.00
2012,05,14,03,04,9.00
2012,05,14,03,05,9.00
2012,05,14,03,06,9.00
2012,05,14,03,07,9.00
2012,05,14,03,08,9.00
2012,05,14,03,09,8.90
2012,05,14,03,10,8.90
2012,05,14,03,11,8.90
2012,05,14,03,12,8.90
2012,05,14,03,13,8.90
2012,05,14,03,14,8.90
2012,05,14,03,15,8.90
2012,05,14,03,16,8.90
2012,05,14,03,17,8.90
2012,05,14,03,18,8.90
2012,05,14,03,19,8.90
2012,05,14,03,20,8.90
2012,05,14,03,21,8.80
2012,05,14,03,22,8.80
2012,05,14,03,23,8.80
2012,05,14,03,24,8.90
2012,05,14,03,25,8.90
2012,05,14,03,26,8.80
2012,05,14,03,27,8.80
2012,05,14,03,28,8.70
2012,05,14,03,29,8.70
2012,05,14,03,30,8.80
2012,05,14,03,31,8.80
2012,05,14,03,32,8.80
2012,05,14,03,33,8.80
2012,05,14,03,34,8.90
2012,05,14,03,35,8.90
2012,05,14,03,36,9.00
2012,05,14,03,37,9.00
2012,05,14,03,38,9.00
2012,05,14,03,39,9.10
2012,05,14,03,40,9.10
2012,05,14,03,41,9.00
2012,05,14,03,42,9.00
2012,05,14,03,43,8.90
2012,05,14,03,44,8.90
2012,05,14,03,45,8.90
2012,05,14,03,46,8.80
2012,05,14,03,47,8.80
2012,05,14,03,48,8.80
2012,05,14,03,49,8.80
2012,05,14,03,50,8.80
2012,05,14,03,51,8.80
2012,05,14,03,52,8.80
2012,05,14,03,53,8.80
2012,05,14,03,54,8.80
2012,05,14,03,55,8.80
2012,05,14,03,56,8.80
2012,05,14,03,57,8.80
2012,05,14,03,58,8.90
2012,05,14,03,59,8.90
2012,05,14,04,00,8.90
2012,05,14,04,01,8.80
2012,05,14,04,02,8.80
2012,05,14,04,03,8.80
2012,05,14,04,04,8.80
2012,05,14,04,05,8.80
2012,05,14,04,06,8.80
2012,05,14,04,07,8.80
2012,05,14,04,08,8.80
2012,05,14,04,09,8.80
2012,05,14,04,10,8.70
2012,05,14,04,11,8.70
2012,05,14,04,12,8.70
2012,05,14,04,13,8.80
2012,05,14,04,14,8.70
2012,05,14,04,15,8.70
2012,05,14,04,16,8.70
2012,05,14,04,17,8.80
2012,05,14,04,18,8.80
2012,05,14,04,19,8.80
2012,05,14,04,20,8.80
2012,05,14,04,21,8.80
2012,05,14,04,22,8.80
2012,05,14,04,23,8.80
2012,05,14,04,24,8.80
2012,05,14,04,25,8.80
2012,05,14,04,26,8.80
2012,05,14,04,27,8.80
2012,05,14,04,28,8.80
2012,05,14,04,29,8.80
2012,05,14,04,30,8.80
2012,05,14,04,31,8.80
2012,05,14,04,32,8.80
2012,05,14,04,33,8.80
2012,05,14,04,34,8.80
2012,05,14,04,35,8.80
2012,05,14,04,36,8.90
2012,05,14,04,37,8.90
2012,05,14,04,38,8.90
2012,05,14,04,39,8.90
2012,05,14,04,40,8.90
2012,05,14,04,41,8.90
2012,05,14,04,42,9.00
2012,05,14,04,43,9.00
2012,05,14,04,44,9.00
2012,05,14,04,45,9.00
2012,05,14,04,46,9.00
2012,05,14,04,47,8.90
2012,05,14,04,48,8.90
2012,05,14,04,49,8.90
2012,05,14,04,50,8.90
2012,05,14,04,51,8.90
2012,05,14,04,52,8.90
2012,05,14,04,53,8.90
2012,05,14,04,54,8.90
2012,05,14,04,55,8.90
2012,05,14,04,56,9.00
2012,05,14,04,57,8.90
2012,05,14,04,58,8.90
2012,05,14,04,59,9.00
2012,05,14,05,00,9.00
2012,05,14,05,01,9.10
2012,05,14,05,02,9.10
2012,05,14,05,03,9.10
2012,05,14,05,04,9.10
2012,05,14,05,05,9.00
2012,05,14,05,06,9.00
2012,05,14,05,07,9.00
2012,05,14,05,08,8.90
2012,05,14,05,09,8.90
2012,05,14,05,10,8.90
2012,05,14,05,11,8.90
2012,05,14,05,12,8.90
2012,05,14,05,13,8.80
2012,05,14,05,14,8.80
2012,05,14,05,15,8.80
2012,05,14,05,16,8.80
2012,05,14,05,17,8.80
2012,05,14,05,18,8.80
2012,05,14,05,19,8.80
2012,05,14,05,20,8.80
2012,05,14,05,21,8.80
2012,05,14,05,22,8.80
2012,05,14,05,23,8.80
2012,05,14,05,24,8.80
2012,05,14,05,25,8.80
2012,05,14,05,26,8.70
2012,05,14,05,27,8.70
2012,05,14,05,28,8.70
2012,05,14,05,29,8.70
2012,05,14,05,30,8.70
2012,05,14,05,31,8.70
2012,05,14,05,32,8.70
2012,05,14,05,33,8.70
2012,05,14,05,34,8.70
2012,05,14,05,35,8.70
2012,05,14,05,36,8.70
2012,05,14,05,37,8.70
2012,05,14,05,38,8.70
2012,05,14,05,39,8.80
2012,05,14,05,40,8.80
2012,05,14,05,41,8.80
2012,05,14,05,42,8.70
2012,05,14,05,43,8.70
2012,05,14,05,44,8.70
2012,05,14,05,45,8.70
2012,05,14,05,46,8.60
2012,05,14,05,47,8.60
2012,05,14,05,48,8.60
2012,05,14,05,49,8.60
2012,05,14,05,50,8.50
2012,05,14,05,51,8.50
2012,05,14,05,52,8.50
2012,05,14,05,53,8.50
2012,05,14,05,54,8.50
2012,05,14,05,55,8.50
2012,05,14,05,56,8.50
2012,05,14,05,57,8.50
2012,05,14,05,58,8.40
2012,05,14,05,59,8.40
2012,05,14,06,00,8.40
2012,05,14,06,01,8.40
2012,05,14,06,02,8.40
2012,05,14,06,03,8.40
2012,05,14,06,04,8.40
2012,05,14,06,05,8.40
2012,05,14,06,06,8.40
2012,05,14,06,07,8.40
2012,05,14,06,08,8.40
2012,05,14,06,09,8.40
2012,05,14,06,10,8.40
2012,05,14,06,11,8.40
2012,05,14,06,12,8.40
2012,05,14,06,13,8.40
2012,05,14,06,14,8.40
2012,05,14,06,15,8.40
2012,05,14,06,16,8.40
2012,05,14,06,17,8.40
2012,05,14,06,18,8.40
2012,05,14,06,19,8.40
2012,05,14,06,20,8.40
2012,05,14,06,21,8.40
2012,05,14,06,22,8.40
2012,05,14,06,23,8.40
2012,05,14,06,24,8.40
2012,05,14,06,25,8.40
2012,05,14,06,26,8.40
2012,05,14,06,27,8.40
2012,05,14,06,28,8.40
2012,05,14,06,29,8.40
2012,05,14,06,30,8.40
2012,05,14,06,31,8.50
2012,05,14,06,32,8.50
2012,05,14,06,33,8.50
2012,05,14,06,34,8.60
2012,05,14,06,35,8.60
2012,05,14,06,36,8.60
2012,05,14,06,37,8.60
2012,05,14,06,38,8.60
2012,05,14,06,39,8.60
2012,05,14,06,40,8.60
2012,05,14,06,41,8.60
2012,05,14,06,42,8.60
2012,05,14,06,43,8.60
2012,05,14,06,44,8.60
2012,05,14,06,45,8.70
2012,05,14,06,46,8.70
2012,05,14,06,47,8.70
2012,05,14,06,48,8.70
2012,05,14,06,49,8.80
2012,05,14,06,50,8.80
2012,05,14,06,51,8.80
2012,05,14,06,52,8.90
2012,05,14,06,53,9.00
2012,05,14,06,54,9.10
2012,05,14,06,55,9.20
2012,05,14,06,56,9.30
2012,05,14,06,57,9.50
2012,05,14,06,58,9.60
2012,05,14,06,59,9.80
2012,05,14,07,00,9.90
2012,05,14,07,01,10.00
2012,05,14,07,02,10.20
2012,05,14,07,03,10.30
2012,05,14,07,04,10.30
2012,05,14,07,05,10.50
2012,05,14,07,06,10.60
2012,05,14,07,07,10.70
2012,05,14,07,08,10.80
2012,05,14,07,09,10.90
2012,05,14,07,10,11.00
2012,05,14,07,11,11.20
2012,05,14,07,12,11.30
2012,05,14,07,13,11.40
2012,05,14,07,14,11.50
2012,05,14,07,15,11.60
2012,05,14,07,16,11.70
2012,05,14,07,17,11.80
2012,05,14,07,18,11.90
2012,05,14,07,19,12.00
2012,05,14,07,20,12.10
2012,05,14,07,21,12.20
2012,05,14,07,22,12.30
2012,05,14,07,23,12.40
2012,05,14,07,24,12.50
2012,05,14,07,25,12.50
2012,05,14,07,26,12.60
2012,05,14,07,27,12.70
2012,05,14,07,28,12.70
2012,05,14,07,29,12.80
2012,05,14,07,30,12.80
2012,05,14,07,31,12.80
2012,05,14,07,32,12.90
2012,05,14,07,33,12.90
2012,05,14,07,34,12.90
2012,05,14,07,35,13.00
2012,05,14,07,36,13.00
2012,05,14,07,37,13.00
2012,05,14,07,38,13.10
2012,05,14,07,39,13.10
2012,05,14,07,40,13.10
2012,05,14,07,41,13.10
2012,05,14,07,42,13.10
2012,05,14,07,43,13.10
2012,05,14,07,44,13.10
2012,05,14,07,45,13.10
2012,05,14,07,46,13.10
2012,05,14,07,47,13.10
2012,05,14,07,48,13.20
2012,05,14,07,49,13.20
2012,05,14,07,50,13.20
2012,05,14,07,51,13.30
2012,05,14,07,52,13.30
2012,05,14,07,53,13.40
2012,05,14,07,54,13.40
2012,05,14,07,55,13.50
2012,05,14,07,56,13.50
2012,05,14,07,57,13.60
2012,05,14,07,58,13.60
2012,05,14,07,59,13.60
2012,05,14,08,00,13.70
2012,05,14,08,01,13.70
2012,05,14,08,02,13.80
2012,05,14,08,03,13.90
2012,05,14,08,04,13.90
2012,05,14,08,05,14.00
2012,05,14,08,06,14.10
2012,05,14,08,07,14.20
2012,05,14,08,08,14.30
2012,05,14,08,09,14.40
2012,05,14,08,10,14.40
2012,05,14,08,11,14.40
2012,05,14,08,12,14.40
2012,05,14,08,13,14.40
2012,05,14,08,14,14.30
2012,05,14,08,15,14.30
2012,05,14,08,16,14.30
2012,05,14,08,17,14.30
2012,05,14,08,18,14.30
2012,05,14,08,19,14.30
2012,05,14,08,20,14.20
2012,05,14,08,21,14.30
2012,05,14,08,22,14.30
2012,05,14,08,23,14.20
2012,05,14,08,24,14.20
2012,05,14,08,25,14.20
2012,05,14,08,26,14.20
2012,05,14,08,27,14.10
2012,05,14,08,28,14.10
2012,05,14,08,29,14.00
2012,05,14,08,30,13.90
2012,05,14,08,31,13.90
2012,05,14,08,32,13.80
2012,05,14,08,33,13.80
2012,05,14,08,34,13.80
2012,05,14,08,35,13.80
2012,05,14,08,36,13.70
2012,05,14,08,37,13.70
2012,05,14,08,38,13.80
2012,05,14,08,39,13.80
2012,05,14,08,40,13.80
2012,05,14,08,41,13.80
2012,05,14,08,42,13.90
2012,05,14,08,43,14.00
2012,05,14,08,44,14.00
2012,05,14,08,45,14.10
2012,05,14,08,46,14.20
2012,05,14,08,47,14.30
2012,05,14,08,48,14.40
2012,05,14,08,49,14.40
2012,05,14,08,50,14.50
2012,05,14,08,51,14.60
2012,05,14,08,52,14.70
2012,05,14,08,53,14.80
2012,05,14,08,54,14.90
2012,05,14,08,55,15.00
2012,05,14,08,56,15.10
2012,05,14,08,57,15.10
2012,05,14,08,58,15.20
2012,05,14,08,59,15.30
2012,05,14,09,00,15.30
2012,05,14,09,01,15.30
2012,05,14,09,02,15.20
2012,05,14,09,03,15.20
2012,05,14,09,04,15.10
2012,05,14,09,05,15.10
2012,05,14,09,06,15.10
2012,05,14,09,07,15.10
2012,05,14,09,08,15.10
2012,05,14,09,09,15.10
2012,05,14,09,10,15.10
2012,05,14,09,11,15.10
2012,05,14,09,12,15.10
2012,05,14,09,13,15.10
2012,05,14,09,14,15.10
2012,05,14,09,15,15.10
2012,05,14,09,16,15.20
2012,05,14,09,17,15.20
2012,05,14,09,18,15.20
2012,05,14,09,19,15.20
2012,05,14,09,20,15.20
2012,05,14,09,21,15.20
2012,05,14,09,22,15.30
2012,05,14,09,23,15.40
2012,05,14,09,24,15.40
2012,05,14,09,25,15.50
2012,05,14,09,26,15.60
2012,05,14,09,27,15.70
2012,05,14,09,28,15.80
2012,05,14,09,29,15.80
2012,05,14,09,30,15.90
2012,05,14,09,31,16.00
2012,05,14,09,32,16.00
2012,05,14,09,33,16.10
2012,05,14,09,34,16.10
2012,05,14,09,35,16.10
2012,05,14,09,36,16.10
2012,05,14,09,37,16.10
2012,05,14,09,38,16.00
2012,05,14,09,39,16.00
2012,05,14,09,40,15.90
2012,05,14,09,41,15.90
2012,05,14,09,42,15.90
2012,05,14,09,43,15.90
2012,05,14,09,44,15.80
2012,05,14,09,45,15.80
2012,05,14,09,46,15.80
2012,05,14,09,47,15.90
2012,05,14,09,48,16.00
2012,05,14,09,49,16.10
2012,05,14,09,50,16.10
2012,05,14,09,51,16.10
2012,05,14,09,52,16.10
2012,05,14,09,53,16.10
2012,05,14,09,54,16.10
2012,05,14,09,55,16.20
2012,05,14,09,56,16.20
2012,05,14,09,57,16.20
2012,05,14,09,58,16.30
2012,05,14,09,59,16.30
2012,05,14,10,00,16.40
2012,05,14,10,01,16.50
2012,05,14,10,02,16.50
2012,05,14,10,03,16.50
2012,05,14,10,04,16.60
2012,05,14,10,05,16.60
2012,05,14,10,06,16.70
2012,05,14,10,07,16.90
2012,05,14,10,08,17.00
2012,05,14,10,09,17.00
2012,05,14,10,10,17.10
2012,05,14,10,11,17.20
2012,05,14,10,12,17.30
2012,05,14,10,13,17.30
2012,05,14,10,14,17.30
2012,05,14,10,15,17.40
2012,05,14,10,16,17.40
2012,05,14,10,17,17.50
2012,05,14,10,18,17.50
2012,05,14,10,19,17.60
2012,05,14,10,20,17.70
2012,05,14,10,21,17.70
2012,05,14,10,22,17.80
2012,05,14,10,23,17.90
2012,05,14,10,24,18.00
2012,05,14,10,25,18.10
2012,05,14,10,26,18.00
2012,05,14,10,27,18.00
2012,05,14,10,28,17.90
2012,05,14,10,29,17.90
2012,05,14,10,30,18.00
2012,05,14,10,31,18.00
2012,05,14,10,32,18.10
2012,05,14,10,33,18.10
2012,05,14,10,34,18.10
2012,05,14,10,35,18.10
2012,05,14,10,36,18.10
2012,05,14,10,37,18.10
2012,05,14,10,38,18.10
2012,05,14,10,39,18.00
2012,05,14,10,40,18.10
2012,05,14,10,41,18.10
2012,05,14,10,42,18.20
2012,05,14,10,43,18.20
2012,05,14,10,44,18.30
2012,05,14,10,45,18.50
2012,05,14,10,46,18.60
2012,05,14,10,47,18.70
2012,05,14,10,48,18.80
2012,05,14,10,49,18.80
2012,05,14,10,50,18.70
2012,05,14,10,51,18.60
2012,05,14,10,52,18.40
2012,05,14,10,53,18.30
2012,05,14,10,54,18.20
2012,05,14,10,55,18.00
2012,05,14,10,56,17.90
2012,05,14,10,57,17.80
2012,05,14,10,58,17.80
2012,05,14,10,59,17.70
2012,05,14,11,00,17.50
2012,05,14,11,01,17.20
2012,05,14,11,02,17.00
2012,05,14,11,03,16.90
2012,05,14,11,04,16.80
2012,05,14,11,05,16.80
2012,05,14,11,06,16.70
2012,05,14,11,07,16.70
2012,05,14,11,08,16.70
2012,05,14,11,09,16.80
2012,05,14,11,10,16.80
2012,05,14,11,11,16.90
2012,05,14,11,12,17.00
2012,05,14,11,13,17.10
2012,05,14,11,14,17.20
2012,05,14,11,15,17.30
2012,05,14,11,16,17.40
2012,05,14,11,17,17.50
2012,05,14,11,18,17.60
2012,05,14,11,19,17.70
2012,05,14,11,20,17.70
2012,05,14,11,21,17.70
2012,05,14,11,22,17.70
2012,05,14,11,23,17.70
2012,05,14,11,24,17.80
2012,05,14,11,25,17.80
2012,05,14,11,26,17.90
2012,05,14,11,27,18.10
2012,05,14,11,28,18.20
2012,05,14,11,29,18.30
2012,05,14,11,30,18.40
2012,05,14,11,31,18.50
2012,05,14,11,32,18.50
2012,05,14,11,33,18.50
2012,05,14,11,34,18.50
2012,05,14,11,35,18.50
2012,05,14,11,36,18.40
2012,05,14,11,37,18.40
2012,05,14,11,38,18.40
2012,05,14,11,39,18.40
2012,05,14,11,40,18.50
2012,05,14,11,41,18.60
2012,05,14,11,42,18.60
2012,05,14,11,43,18.70
2012,05,14,11,44,18.70
2012,05,14,11,45,18.70
2012,05,14,11,46,18.70
2012,05,14,11,47,18.80
2012,05,14,11,48,18.80
2012,05,14,11,49,18.80
2012,05,14,11,50,18.90
2012,05,14,11,51,18.90
2012,05,14,11,52,19.00
2012,05,14,11,53,19.10
2012,05,14,11,54,19.10
2012,05,14,11,55,19.00
2012,05,14,11,56,19.00
2012,05,14,11,57,19.00
2012,05,14,11,58,19.00
2012,05,14,11,59,19.00
2012,05,14,12,00,19.00
2012,05,14,12,01,19.00
2012,05,14,12,02,19.00
2012,05,14,12,03,19.10
2012,05,14,12,04,19.10
2012,05,14,12,05,19.20
2012,05,14,12,06,19.20
2012,05,14,12,07,19.30
2012,05,14,12,08,19.40
2012,05,14,12,09,19.60
2012,05,14,12,10,19.80
2012,05,14,12,11,19.90
2012,05,14,12,12,20.00
2012,05,14,12,13,20.20
2012,05,14,12,14,20.30
2012,05,14,12,15,20.30
2012,05,14,12,16,20.40
2012,05,14,12,17,20.50
2012,05,14,12,18,20.60
2012,05,14,12,19,20.60
2012,05,14,12,20,20.70
2012,05,14,12,21,20.70
2012,05,14,12,22,20.80
2012,05,14,12,23,20.80
2012,05,14,12,24,20.80
2012,05,14,12,25,20.80
2012,05,14,12,26,20.80
2012,05,14,12,27,20.90
2012,05,14,12,28,20.90
2012,05,14,12,29,20.90
2012,05,14,12,30,21.00
2012,05,14,12,31,21.00
2012,05,14,12,32,21.00
2012,05,14,12,33,21.10
2012,05,14,12,34,21.10
2012,05,14,12,35,21.10
2012,05,14,12,36,21.20
2012,05,14,12,37,21.30
2012,05,14,12,38,21.30
2012,05,14,12,39,21.40
2012,05,14,12,40,21.40
2012,05,14,12,41,21.30
2012,05,14,12,42,21.20
2012,05,14,12,43,21.00
2012,05,14,12,44,20.80
2012,05,14,12,45,20.60
2012,05,14,12,46,20.40
2012,05,14,12,47,20.30
2012,05,14,12,48,20.10
2012,05,14,12,49,19.90
2012,05,14,12,50,19.60
2012,05,14,12,51,19.30
2012,05,14,12,52,19.10
2012,05,14,12,53,19.10
2012,05,14,12,54,19.10
2012,05,14,12,55,19.10
2012,05,14,12,56,19.00
2012,05,14,12,57,18.90
2012,05,14,12,58,18.80
2012,05,14,12,59,18.70
2012,05,14,13,00,18.70
2012,05,14,13,01,18.70
2012,05,14,13,02,18.70
2012,05,14,13,03,18.70
2012,05,14,13,04,18.80
2012,05,14,13,05,18.80
2012,05,14,13,06,18.70
2012,05,14,13,07,18.70
2012,05,14,13,08,18.60
2012,05,14,13,09,18.60
2012,05,14,13,10,18.50
2012,05,14,13,11,18.50
2012,05,14,13,12,18.50
2012,05,14,13,13,18.50
2012,05,14,13,14,18.60
2012,05,14,13,15,18.60
2012,05,14,13,16,18.70
2012,05,14,13,17,18.70
2012,05,14,13,18,18.70
2012,05,14,13,19,18.80
2012,05,14,13,20,18.90
2012,05,14,13,21,19.00
2012,05,14,13,22,19.10
2012,05,14,13,23,19.30
2012,05,14,13,24,19.40
2012,05,14,13,25,19.40
2012,05,14,13,26,19.50
2012,05,14,13,27,19.50
2012,05,14,13,28,19.60
2012,05,14,13,29,19.60
2012,05,14,13,30,19.50
2012,05,14,13,31,19.40
2012,05,14,13,32,19.40
2012,05,14,13,33,19.30
2012,05,14,13,34,19.30
2012,05,14,13,35,19.30
2012,05,14,13,36,19.30
2012,05,14,13,37,19.30
2012,05,14,13,38,19.30
2012,05,14,13,39,19.30
2012,05,14,13,40,19.30
2012,05,14,13,41,19.40
2012,05,14,13,42,19.50
2012,05,14,13,43,19.60
2012,05,14,13,44,19.70
2012,05,14,13,45,19.80
2012,05,14,13,46,19.80
2012,05,14,13,47,19.80
2012,05,14,13,48,19.70
2012,05,14,13,49,19.70
2012,05,14,13,50,19.50
2012,05,14,13,51,19.40
2012,05,14,13,52,19.40
2012,05,14,13,53,19.30
2012,05,14,13,54,19.30
2012,05,14,13,55,19.30
2012,05,14,13,56,19.30
2012,05,14,13,57,19.30
2012,05,14,13,58,19.40
2012,05,14,13,59,19.40
2012,05,14,14,00,19.40
2012,05,14,14,01,19.30
2012,05,14,14,02,19.30
2012,05,14,14,03,19.40
2012,05,14,14,04,19.40
2012,05,14,14,05,19.30
2012,05,14,14,06,19.30
2012,05,14,14,07,19.30
2012,05,14,14,08,19.30
2012,05,14,14,09,19.30
2012,05,14,14,10,19.20
2012,05,14,14,11,19.10
2012,05,14,14,12,19.00
2012,05,14,14,13,18.90
2012,05,14,14,14,18.90
2012,05,14,14,15,18.80
2012,05,14,14,16,18.80
2012,05,14,14,17,18.80
2012,05,14,14,18,18.80
2012,05,14,14,19,18.80
2012,05,14,14,20,18.80
2012,05,14,14,21,18.70
2012,05,14,14,22,18.70
2012,05,14,14,23,18.70
2012,05,14,14,24,18.80
2012,05,14,14,25,18.80
2012,05,14,14,26,18.90
2012,05,14,14,27,19.00
2012,05,14,14,28,19.10
2012,05,14,14,29,19.20
2012,05,14,14,30,19.30
2012,05,14,14,31,19.40
2012,05,14,14,32,19.40
2012,05,14,14,33,19.40
2012,05,14,14,34,19.40
2012,05,14,14,35,19.30
2012,05,14,14,36,19.30
2012,05,14,14,37,19.20
2012,05,14,14,38,19.00
2012,05,14,14,39,18.80
2012,05,14,14,40,18.70
2012,05,14,14,41,18.60
2012,05,14,14,42,18.60
2012,05,14,14,43,18.60
2012,05,14,14,44,18.60
2012,05,14,14,45,18.60
2012,05,14,14,46,18.60
2012,05,14,14,47,18.70
2012,05,14,14,48,18.70
2012,05,14,14,49,18.90
2012,05,14,14,50,19.00
2012,05,14,14,51,19.10
2012,05,14,14,52,19.20
2012,05,14,14,53,19.20
2012,05,14,14,54,19.20
2012,05,14,14,55,19.10
2012,05,14,14,56,19.00
2012,05,14,14,57,19.00
2012,05,14,14,58,18.90
2012,05,14,14,59,18.80
2012,05,14,15,00,18.60
2012,05,14,15,01,18.60
2012,05,14,15,02,18.50
2012,05,14,15,03,18.40
2012,05,14,15,04,18.40
2012,05,14,15,05,18.40
2012,05,14,15,06,18.40
2012,05,14,15,07,18.50
2012,05,14,15,08,18.50
2012,05,14,15,09,18.60
2012,05,14,15,10,18.70
2012,05,14,15,11,18.70
2012,05,14,15,12,18.80
2012,05,14,15,13,18.80
2012,05,14,15,14,18.80
2012,05,14,15,15,18.90
2012,05,14,15,16,19.00
2012,05,14,15,17,19.00
2012,05,14,15,18,19.10
2012,05,14,15,19,19.20
2012,05,14,15,20,19.30
2012,05,14,15,21,19.30
2012,05,14,15,22,19.40
2012,05,14,15,23,19.40
2012,05,14,15,24,19.40
2012,05,14,15,25,19.50
2012,05,14,15,26,19.50
2012,05,14,15,27,19.50
2012,05,14,15,28,19.60
2012,05,14,15,29,19.60
2012,05,14,15,30,19.60
2012,05,14,15,31,19.60
2012,05,14,15,32,19.50
2012,05,14,15,33,19.40
2012,05,14,15,34,19.30
2012,05,14,15,35,19.20
2012,05,14,15,36,19.20
2012,05,14,15,37,19.10
2012,05,14,15,38,19.10
2012,05,14,15,39,19.00
2012,05,14,15,40,19.00
2012,05,14,15,41,18.90
2012,05,14,15,42,18.90
2012,05,14,15,43,18.80
2012,05,14,15,44,18.80
2012,05,14,15,45,18.70
2012,05,14,15,46,18.70
2012,05,14,15,47,18.70
2012,05,14,15,48,18.70
2012,05,14,15,49,18.60
2012,05,14,15,50,18.60
2012,05,14,15,51,18.60
2012,05,14,15,52,18.60
2012,05,14,15,53,18.60
2012,05,14,15,54,18.60
2012,05,14,15,55,18.60
2012,05,14,15,56,18.60
2012,05,14,15,57,18.60
2012,05,14,15,58,18.60
2012,05,14,15,59,18.50
2012,05,14,16,00,18.50
2012,05,14,16,01,18.40
2012,05,14,16,04,18.60
2012,05,14,16,05,18.60
2012,05,14,16,06,18.60
2012,05,14,16,07,18.60
2012,05,14,16,08,18.50
2012,05,14,16,09,18.40
2012,05,14,16,10,18.30
2012,05,14,16,11,18.10
2012,05,14,16,12,18.00
2012,05,14,16,13,17.90
2012,05,14,16,14,17.90
2012,05,14,16,15,17.80
2012,05,14,16,16,17.80
2012,05,14,16,17,17.90
2012,05,14,16,18,17.90
2012,05,14,16,19,17.90
2012,05,14,16,20,17.80
2012,05,14,16,21,17.80
2012,05,14,16,22,17.70
2012,05,14,16,23,17.70
2012,05,14,16,24,17.70
2012,05,14,16,25,17.70
2012,05,14,16,26,17.60
2012,05,14,16,27,17.60
2012,05,14,16,28,17.60
2012,05,14,16,29,17.70
2012,05,14,16,30,17.70
2012,05,14,16,31,17.70
2012,05,14,16,32,17.60
2012,05,14,16,33,17.60
2012,05,14,16,34,17.50
2012,05,14,16,35,17.50
2012,05,14,16,36,17.40
2012,05,14,16,37,17.40
2012,05,14,16,38,17.40
2012,05,14,16,39,17.40
2012,05,14,16,40,17.40
2012,05,14,16,41,17.40
2012,05,14,16,42,17.40
2012,05,14,16,43,17.40
2012,05,14,16,44,17.40
2012,05,14,16,45,17.40
2012,05,14,16,46,17.40
2012,05,14,16,47,17.40
2012,05,14,16,48,17.40
2012,05,14,16,49,17.40
2012,05,14,16,50,17.40
2012,05,14,16,51,17.50
2012,05,14,16,52,17.50
2012,05,14,16,53,17.50
2012,05,14,16,54,17.50
2012,05,14,16,55,17.50
2012,05,14,16,56,17.50
2012,05,14,16,57,17.50
2012,05,14,16,58,17.50
2012,05,14,16,59,17.60
2012,05,14,17,00,17.60
2012,05,14,17,01,17.60
2012,05,14,17,02,17.50
2012,05,14,17,03,17.50
2012,05,14,17,04,17.60
2012,05,14,17,05,17.60
2012,05,14,17,06,17.70
2012,05,14,17,07,17.80
2012,05,14,17,08,17.80
2012,05,14,17,09,17.80
2012,05,14,17,10,17.80
2012,05,14,17,11,17.90
2012,05,14,17,12,17.90
2012,05,14,17,13,17.90
2012,05,14,17,14,17.90
2012,05,14,17,15,18.00
2012,05,14,17,16,18.10
2012,05,14,17,17,18.10
2012,05,14,17,18,18.10
2012,05,14,17,19,18.10
2012,05,14,17,20,18.20
2012,05,14,17,21,18.20
2012,05,14,17,22,18.30
2012,05,14,17,23,18.30
2012,05,14,17,24,18.30
2012,05,14,17,25,18.30
2012,05,14,17,26,18.30
2012,05,14,17,27,18.40
2012,05,14,17,28,18.40
2012,05,14,17,29,18.40
2012,05,14,17,30,18.40
2012,05,14,17,31,18.40
2012,05,14,17,32,18.40
2012,05,14,17,33,18.40
2012,05,14,17,34,18.40
2012,05,14,17,35,18.40